{"data":{"norad_id":65382,"epoch":"2026-05-25T03:35:59.152416Z","epoch_age_seconds":66011,"freshness":"FRESH","line1":"1 65382U 25191D   26145.14999019  .00002812  00000+0  19882-3 0  9995","line2":"2 65382  97.4517  16.5005 0002107  84.3967 275.7500 15.05657743 41771","mean_motion":15.05657743,"eccentricity":0.0002107,"inclination_deg":97.4517,"raan_deg":16.5005,"arg_perigee_deg":84.3967,"mean_anomaly_deg":275.75,"bstar":0.00019882,"rev_number":4177,"period_min":95.639265078319,"perigee_km":548.02775279428,"apogee_km":550.94705371781,"semimajor_km":6927.624403256,"source":"CELESTRAK","updated_at":"2026-05-25T13:38:20.772209Z"}}